Find Starlink 35205

NORAD ID: 65679 Int'l Des: 2025-212 Owner: SPXS Country: US Constellation: starlink operational
LEOCIRCULAR

リアルタイム位置

3D地球を読み込み中...

Starlink 35205について

説明を読み込み中...

次回通過

Passes for default location (London). Set your location on the main map for personalized predictions.

高度履歴

Loading altitude history...

軌道要素

1 65679U 25212D 26134.02581457 .00012316 00000-0 42717-3 0 9990
2 65679 53.1594 42.4178 0001376 66.7659 293.3487 15.30207472 37191
Epoch: May 14, 2026 • Age: 13 hours

現在のステータス

高度 484.3 km
速度 7.62 km/s
衛星直下点 -27.85°S, 159.2°E
打ち上げ日 Sep 21, 2025
運用期間 0.6 years
タイプ internet

技術仕様

分類 Payload
質量 575.00 kg
乾燥質量 530.00 kg
総質量 575.00 kg
長さ 0.30 m
直径 4.10 m
スパン 29.00 m
形状 Box + pan
製造者 SPXS
バスタイプ Starlink V2MO
フェーズステータス In Orbit
所有者/国 SPXS/US

Most Searched